User: anonymous   Login
Location: Albany
(35.0000°S, 118.0000°E)
Time: 21:53:24
(UTC-04:00)
Language:

Cosmos 2227 Rocket - Orbit

View from above orbital plane
View from above orbital plane
View from above satellite
View from above satellite

Ground track
Ground track

The orbit data is extracted from the following two-line orbital elements,

1 22285U 92093B   16270.48237210  .00000239  00000-0  14815-3 0  9991
2 22285  71.0227  45.4614 0004377 198.0609 162.0359 14.15001552225232
Epoch (UTC): 26 September 2016 11:34:36
Eccentricity: 0.0004377
inclination: 71.0227°
perigee height: 839 km
apogee height: 845 km
right ascension of ascending node: 45.4614°
argument of perigee: 198.0609°
revolutions per day: 14.15001552
mean anomaly at epoch: 162.0359°
orbit number at epoch: 22523

The dashed part of the orbit path shows where the satellite is in the earth's shadow,  

DLR